Temp
32 33 34 35 35 34 36 34 35 35 35 34 35 33 32 30 30 30 29 27 26 26 24 23 22 22 21 20 19 19 18 18 17 18 18 19 20 20 20 20 20 19 19 19
34 33 36 37 36 35 36 35 35 35 35 34 35 34 34 32 32 31 30 29 28 27 26 24 22 22 21 21 20 19 18 19 19 18 19 19 20 21 21 20 20 20 19 18
33 34 36 36 35 35 36 36 35 35 35 35 35 34 34 34 33 32 31 30 29 28 27 25 23 22 22 21 20 19 18 18 20 20 19 19 19 19 20 20 20 20 19 19
34 36 35 35 35 35 35 36 35 35 34 34 36 32 34 35 34 33 32 31 30 29 28 26 24 23 23 22 21 20 18 18 18 19 19 19 20 20 21 21 22 21 19 19
34 35 35 35 35 36 35 37 36 35 35 35 35 34 35 35 34 34 34 32 32 30 29 28 26 24 23 23 22 21 19 18 19 18 20 19 19 20 20 21 21 20 20 20
35 35 36 35 36 36 36 35 35 35 35 34 35 35 35 35 35 35 35 34 32 31 30 29 27 26 24 24 23 22 20 21 21 18 20 21 20 19 20 21 21 21 21 21
34 35 36 35 35 36 35 34 33 33 34 34 37 35 35 37 37 37 36 34 33 32 31 30 28 27 25 25 24 23 21 22 22 22 22 22 22 21 21 21 20 20 21 22
32 32 34 35 35 35 34 35 34 31 33 35 35 34 36 38 37 37 36 35 34 33 32 31 30 28 27 26 25 24 22 21 23 23 23 23 22 22 22 22 20 20 21 22
32 32 35 35 35 35 34 33 36 35 36 35 35 36 38 38 37 37 37 36 35 34 33 32 31 29 28 26 25 25 24 22 21 21 22 22 22 22 20 21 19 19 19 19
35 32 35 35 35 35 35 36 34 35 33 33 36 35 35 36 37 38 37 37 36 35 34 33 32 30 29 28 26 25 24 23 21 21 20 20 20 21 22 21 20 19 19 19
35 35 34 35 34 34 34 35 35 36 36 35 34 35 38 37 38 37 37 36 36 35 35 34 33 31 29 29 28 26 25 24 22 21 21 20 20 19 19 19 19 19 19 19
35 34 34 34 35 36 36 35 35 34 33 36 36 37 39 38 38 37 36 35 35 35 35 34 33 32 30 29 28 27 26 24 23 22 21 20 20 20 20 19 19 18 18 18
34 33 32 33 35 35 35 35 36 36 36 34 35 35 38 38 37 36 37 35 34 34 34 33 32 32 30 28 28 27 26 25 23 21 20 20 20 20 19 18 18 17 17 16
33 33 33 34 33 35 33 35 35 36 35 35 35 36 37 37 37 36 36 35 34 33 33 32 30 29 28 27 26 25 24 23 21 20 20 20 19 18 18 17 17 17 16 15
33 31 33 34 36 35 35 35 35 35 35 35 36 36 37 37 37 37 36 35 33 32 31 30 28 27 26 24 24 23 22 21 20 20 19 18 18 17 17 16 16 15 15 16
33 30 32 32 35 36 34 35 35 36 36 36 36 36 38 37 37 36 36 33 32 31 30 29 27 25 24 23 22 22 21 20 19 18 18 18 17 16 16 15 16 17 16 15
31 31 31 30 33 34 33 35 35 35 36 36 35 36 38 37 37 36 36 35 32 31 30 28 26 24 23 22 22 20 19 19 18 17 16 16 17 17 17 17 17 15 14 13
30 30 31 31 32 30 34 36 37 36 36 37 37 37 37 37 36 36 35 35 34 32 30 27 25 24 22 22 20 20 18 18 17 16 16 17 17 17 17 16 15 14 13 12
32 30 30 30 31 32 33 35 35 34 34 36 36 36 36 36 36 35 34 34 34 32 29 26 24 23 22 20 19 18 17 17 16 16 17 18 19 19 17 16 14 14 12 12
31 30 30 29 30 30 33 35 35 36 33 35 35 35 36 35 34 35 34 34 33 30 27 25 23 21 20 18 18 17 17 16 16 17 19 20 19 17 15 15 15 13 12 11
28 29 28 30 29 32 35 36 35 31 33 35 35 34 34 35 35 34 33 32 30 27 24 23 21 20 18 17 17 16 16 16 18 19 20 20 20 19 16 14 15 11 11 10
27 27 29 30 29 29 34 35 33 33 34 34 34 34 34 34 34 32 30 28 26 24 23 21 20 19 17 17 16 16 17 19 17 18 19 18 15 13 15 14 14 10 11 11
27 28 29 30 30 32 33 34 34 34 33 33 34 34 34 33 33 30 27 26 24 22 21 20 19 17 17 16 16 18 19 17 17 18 18 18 17 15 16 14 11 12 11 12
29 30 29 29 30 32 32 33 33 33 33 33 33 34 34 33 33 29 26 24 23 21 20 20 18 17 16 15 14 16 17 16 18 18 18 17 15 12 11 12 12 11 10 10
30 29 29 29 31 31 31 31 31 31 30 30 30 31 32 32 30 27 25 23 21 20 19 18 17 16 15 14 13 14 16 17 17 17 17 14 11 11 13 11 10 11 11 11
30 30 29 29 30 30 31 31 31 31 32 31 29 30 30 31 29 26 24 22 20 19 18 17 16 15 14 13 13 16 16 17 17 16 13 14 13 13 11 10 11 10 10 10
Height
1497 1496 1492 1481 1482 1489 1475 1485 1486 1486 1492 1494 1492 1500 1511 1519 1521 1525 1530 1535 1540 1544 1548 1553 1556 1560 1563 1566 1568 1570 1573 1575 1577 1580 1582 1584 1585 1587 1587 1587 1586 1585 1584 1584
1489 1492 1477 1472 1478 1483 1477 1483 1485 1488 1489 1494 1492 1496 1500 1512 1515 1519 1524 1530 1535 1539 1544 1550 1554 1557 1560 1562 1565 1567 1569 1571 1573 1576 1579 1582 1584 1585 1586 1585 1584 1583 1583 1583
1482 1480 1474 1473 1476 1486 1478 1480 1485 1491 1489 1488 1490 1496 1495 1502 1509 1513 1519 1525 1530 1535 1540 1546 1550 1554 1557 1560 1561 1563 1565 1567 1570 1573 1576 1579 1580 1581 1582 1583 1583 1583 1582 1581
1476 1472 1474 1475 1482 1480 1483 1473 1482 1488 1494 1498 1484 1519 1495 1493 1501 1508 1513 1519 1525 1530 1536 1541 1546 1550 1552 1555 1558 1560 1562 1564 1567 1569 1573 1576 1578 1580 1581 1582 1582 1582 1581 1580
1473 1470 1471 1476 1480 1475 1478 1471 1481 1486 1492 1489 1486 1498 1487 1486 1498 1499 1505 1512 1518 1525 1530 1536 1541 1545 1549 1552 1555 1557 1558 1561 1563 1566 1569 1572 1574 1577 1579 1580 1580 1579 1578 1577
1462 1466 1465 1471 1472 1471 1472 1482 1485 1486 1487 1501 1484 1486 1489 1485 1488 1491 1497 1504 1512 1519 1525 1531 1536 1541 1545 1549 1552 1555 1555 1557 1560 1564 1565 1568 1571 1573 1575 1577 1577 1577 1577 1576
1464 1460 1462 1470 1473 1471 1475 1486 1509 1513 1506 1501 1469 1486 1481 1470 1475 1480 1488 1497 1504 1512 1519 1525 1531 1536 1540 1544 1548 1552 1553 1554 1556 1559 1562 1564 1566 1568 1569 1571 1573 1574 1574 1573
1470 1479 1462 1464 1466 1472 1481 1482 1494 1522 1505 1489 1475 1495 1477 1463 1469 1477 1481 1489 1497 1505 1512 1518 1524 1530 1535 1539 1543 1547 1549 1550 1553 1555 1558 1561 1563 1564 1566 1567 1568 1570 1571 1570
1463 1467 1455 1459 1465 1464 1475 1486 1467 1476 1467 1483 1476 1472 1462 1463 1470 1475 1478 1481 1489 1497 1504 1512 1518 1525 1530 1535 1539 1543 1546 1547 1550 1552 1554 1556 1558 1560 1563 1563 1565 1565 1566 1566
1437 1462 1444 1454 1461 1461 1461 1467 1487 1472 1499 1499 1472 1478 1478 1470 1468 1466 1474 1477 1482 1491 1498 1505 1513 1519 1525 1530 1535 1539 1543 1545 1547 1549 1551 1553 1554 1556 1557 1559 1560 1561 1561 1560
1431 1440 1446 1444 1455 1460 1464 1465 1467 1463 1469 1483 1492 1474 1448 1459 1459 1465 1469 1474 1479 1485 1492 1499 1506 1514 1521 1526 1531 1535 1539 1542 1544 1546 1549 1551 1553 1555 1556 1557 1558 1557 1556 1556
1429 1435 1444 1445 1442 1446 1447 1458 1458 1474 1484 1462 1462 1459 1437 1449 1458 1466 1468 1473 1478 1484 1489 1495 1502 1509 1516 1522 1526 1531 1535 1538 1541 1544 1546 1548 1550 1553 1555 1555 1553 1553 1554 1553
1428 1437 1453 1447 1444 1444 1447 1449 1450 1453 1454 1469 1477 1470 1445 1451 1458 1464 1465 1473 1477 1483 1488 1493 1500 1505 1511 1517 1522 1527 1531 1535 1538 1540 1542 1545 1547 1550 1550 1549 1549 1550 1551 1552
1427 1430 1435 1440 1441 1439 1454 1446 1447 1449 1465 1462 1462 1453 1448 1452 1457 1462 1467 1472 1477 1482 1487 1493 1499 1504 1509 1513 1518 1523 1527 1531 1534 1536 1539 1543 1544 1545 1545 1547 1548 1548 1549 1550
1421 1435 1430 1426 1418 1427 1437 1443 1443 1448 1448 1458 1450 1450 1446 1450 1456 1457 1464 1471 1478 1483 1487 1492 1497 1501 1506 1510 1514 1518 1523 1526 1530 1534 1537 1538 1540 1543 1545 1546 1546 1547 1547 1547
1419 1434 1432 1434 1420 1417 1432 1432 1439 1436 1438 1442 1441 1444 1437 1446 1452 1459 1462 1471 1477 1482 1486 1490 1495 1499 1502 1506 1510 1515 1519 1524 1528 1530 1533 1536 1539 1541 1542 1544 1544 1544 1544 1544
1420 1425 1433 1443 1426 1426 1437 1420 1427 1433 1431 1437 1448 1442 1438 1443 1451 1455 1459 1464 1474 1478 1483 1487 1491 1496 1500 1504 1507 1513 1517 1521 1525 1528 1531 1533 1536 1538 1540 1541 1542 1542 1542 1542
1418 1423 1427 1437 1432 1451 1419 1409 1412 1423 1424 1426 1431 1434 1437 1441 1448 1454 1458 1461 1465 1473 1479 1484 1488 1492 1497 1502 1505 1510 1515 1518 1522 1524 1527 1530 1534 1538 1540 1541 1541 1541 1540 1539
1409 1419 1428 1435 1433 1425 1418 1416 1420 1426 1429 1424 1431 1436 1437 1440 1446 1452 1455 1458 1461 1467 1476 1482 1486 1490 1495 1499 1502 1506 1512 1516 1517 1521 1524 1527 1531 1534 1536 1537 1538 1538 1539 1538
1405 1413 1423 1430 1434 1437 1416 1409 1413 1419 1435 1427 1432 1437 1436 1439 1447 1447 1451 1454 1459 1465 1472 1479 1484 1488 1493 1497 1500 1503 1508 1513 1515 1517 1521 1525 1529 1532 1534 1530 1532 1535 1538 1536
1415 1416 1424 1420 1428 1413 1397 1402 1409 1434 1432 1421 1427 1432 1434 1436 1441 1445 1447 1448 1456 1463 1470 1476 1482 1486 1490 1494 1498 1502 1506 1510 1513 1514 1516 1519 1522 1522 1529 1532 1529 1534 1536 1536
1415 1423 1417 1416 1423 1433 1399 1401 1413 1419 1418 1419 1421 1426 1430 1434 1438 1442 1450 1453 1456 1461 1468 1474 1480 1485 1488 1492 1495 1499 1502 1506 1510 1511 1514 1518 1523 1526 1522 1527 1527 1531 1532 1534
1418 1407 1408 1408 1407 1401 1402 1402 1405 1410 1417 1420 1420 1421 1424 1430 1433 1439 1448 1453 1458 1461 1467 1473 1478 1483 1488 1492 1494 1494 1496 1501 1505 1507 1511 1516 1520 1524 1523 1525 1528 1531 1531 1532
1395 1400 1405 1406 1404 1400 1404 1404 1407 1408 1411 1415 1417 1419 1421 1426 1429 1437 1446 1451 1455 1460 1466 1472 1477 1483 1487 1491 1493 1493 1495 1499 1503 1506 1510 1515 1519 1523 1525 1529 1530 1528 1528 1528
1386 1397 1400 1403 1400 1404 1403 1407 1409 1411 1414 1417 1418 1418 1418 1421 1428 1436 1444 1448 1451 1457 1464 1470 1475 1481 1486 1489 1491 1493 1495 1499 1502 1505 1510 1515 1520 1523 1523 1524 1525 1522 1524 1524
1386 1388 1398 1399 1399 1402 1400 1406 1407 1408 1409 1412 1416 1417 1417 1420 1426 1434 1441 1445 1449 1455 1461 1467 1474 1480 1485 1488 1490 1493 1497 1500 1503 1506 1512 1517 1520 1523 1525 1523 1522 1522 1523 1523
Wind_Speed
21 14 16 20 9 9 11 3 12 10 8 6 2 17 14 17 14 15 15 16 16 16 16 17 18 19 19 21 24 23 22 20 18 14 13 12 11 10 10 11 13 10 8 8
16 20 20 19 18 14 4 6 8 8 8 8 10 7 17 17 15 16 16 17 16 16 17 18 19 20 21 22 22 24 24 27 25 20 19 16 13 11 11 11 12 11 9 9
22 23 21 18 8 12 13 13 12 6 5 10 5 10 14 18 17 15 16 16 17 18 19 20 21 21 20 21 23 24 25 26 29 25 19 18 20 18 15 14 12 10 9 9
23 23 21 10 15 17 16 7 4 4 9 4 9 2 14 16 15 16 18 18 19 19 20 21 22 22 22 22 21 22 23 24 24 26 23 19 18 14 12 12 10 9 9 9
25 24 19 21 21 17 10 9 8 6 8 11 14 8 15 16 16 17 20 21 20 22 22 23 23 23 22 21 21 21 22 22 23 23 25 21 20 16 13 12 12 12 13 13
25 29 20 20 19 18 18 6 7 11 11 12 12 12 13 15 16 17 20 24 23 23 23 23 23 23 23 22 21 20 21 21 21 21 21 25 21 16 14 11 12 11 11 11
26 28 21 20 22 21 13 11 10 11 11 9 17 10 4 15 12 17 21 24 26 25 25 25 26 26 24 25 23 22 22 22 21 20 20 20 22 22 19 17 14 15 14 13
22 25 20 23 25 20 19 20 13 15 12 11 7 7 6 10 19 12 21 26 26 27 27 27 28 27 27 26 25 24 24 24 23 22 21 21 21 20 20 19 16 15 14 14
23 29 25 25 21 25 18 21 23 22 17 8 14 12 16 10 11 10 14 22 29 28 28 28 28 27 26 25 26 25 25 24 22 22 22 22 22 22 19 19 16 15 16 15
20 21 24 25 21 30 26 20 21 17 15 13 9 16 10 16 15 13 14 20 26 30 28 27 27 27 26 25 24 23 23 23 21 20 20 19 19 19 20 20 20 18 17 17
28 19 24 23 23 23 22 20 23 20 15 11 12 12 12 14 12 7 9 22 24 28 28 26 26 25 24 23 22 22 21 21 20 18 18 17 14 14 13 12 13 13 17 18
28 11 17 24 22 24 23 22 25 15 18 15 11 3 19 15 8 7 12 18 23 24 25 24 24 23 24 23 22 21 21 20 19 16 15 15 13 13 11 13 13 18 17 11
25 17 17 22 23 23 24 25 23 25 18 15 13 10 8 10 5 8 11 19 23 24 21 20 21 22 22 22 22 20 20 18 16 16 14 12 10 10 10 12 11 5 2 3
30 21 20 18 21 22 28 27 28 22 17 15 17 15 16 11 9 13 9 18 21 22 22 21 21 20 21 20 21 20 18 17 16 14 13 11 10 12 12 8 5 4 3 2
27 28 22 23 21 25 24 28 26 28 25 21 19 16 12 7 8 11 16 16 20 21 22 22 22 22 21 21 21 20 18 17 16 15 15 16 14 12 7 7 6 4 1 4
23 21 27 24 27 23 29 30 32 29 28 23 22 16 7 15 10 15 13 15 18 21 22 22 22 22 23 22 22 21 20 19 18 18 16 16 13 11 8 5 2 3 5 6
24 20 21 24 24 22 22 26 28 30 27 24 23 19 16 9 11 14 17 14 17 21 23 24 24 24 23 23 24 22 22 22 22 20 17 14 11 9 6 2 1 3 5 5
22 19 16 19 19 29 11 20 19 24 25 26 23 19 17 14 14 16 17 19 20 18 23 24 25 25 24 25 24 25 24 23 22 20 17 14 11 7 3 3 4 5 4 4
25 19 14 17 20 17 21 21 20 16 16 15 15 16 18 15 14 16 13 18 18 19 22 23 24 26 28 27 28 28 25 24 23 20 18 15 9 4 2 2 4 6 3 3
16 18 15 15 23 27 19 22 22 22 20 19 17 19 20 20 13 10 24 21 15 20 23 24 26 28 28 28 29 29 27 24 22 21 16 10 5 2 1 1 3 3 3 3
15 16 21 16 17 16 15 16 25 19 12 23 30 28 28 18 21 20 14 21 21 24 26 27 28 28 28 29 28 28 26 24 21 19 14 10 5 3 0 2 3 2 1 3
17 16 15 18 16 17 19 17 23 14 19 17 27 26 29 30 30 13 10 19 25 27 28 29 28 29 29 30 29 28 26 25 22 17 12 10 9 4 4 1 3 3 6 4
19 19 14 15 17 2 18 17 21 23 21 21 23 21 26 22 23 16 19 22 24 27 29 28 28 29 28 27 27 30 29 26 21 17 12 7 4 4 2 4 8 4 6 4
19 22 17 14 16 18 11 16 7 8 17 15 19 22 21 22 19 22 22 25 26 26 28 27 29 28 26 25 24 26 27 24 19 14 10 7 7 9 10 7 5 6 5 5
11 15 16 20 14 18 19 18 14 13 11 11 13 17 15 13 20 24 26 27 27 27 28 28 29 29 26 24 24 25 24 20 17 13 9 9 10 9 10 10 9 4 6 6
22 14 13 10 16 18 14 27 24 20 20 14 13 14 19 20 26 27 27 26 28 30 28 30 30 28 25 24 24 23 20 16 13 12 14 13 11 10 6 6 7 6 8 9
Wind_Direction
202 218 220 209 202 225 232 29 131 115 112 239 54 134 158 172 182 171 171 172 177 180 183 185 187 190 193 198 203 206 210 214 219 223 225 232 239 253 264 273 285 298 305 301
195 221 219 228 158 234 252 199 134 93 122 273 152 180 152 172 188 173 181 176 179 174 171 181 187 191 195 201 207 211 214 218 223 226 226 225 240 252 263 266 271 289 292 294
213 208 229 222 168 222 216 210 135 95 167 212 250 179 167 171 182 178 179 182 184 180 175 183 188 193 197 202 207 212 217 219 225 222 234 236 243 251 261 272 284 290 285 284
219 213 217 197 218 217 217 225 73 228 243 244 183 306 183 170 184 181 182 183 185 186 187 188 190 194 198 203 206 208 215 219 223 226 221 233 234 247 255 266 269 259 271 290
212 222 213 198 214 213 251 148 199 239 259 268 186 243 155 173 187 186 187 184 188 186 190 190 194 199 199 201 202 206 212 215 214 228 225 227 241 243 257 260 264 272 270 293
224 215 219 216 220 229 236 185 230 248 248 247 247 243 173 173 186 192 189 184 187 187 191 193 194 198 200 201 203 205 210 216 218 218 230 225 222 240 235 246 253 266 275 277
216 224 208 222 221 219 232 211 221 222 225 244 201 213 226 152 179 186 187 191 184 188 191 193 192 195 199 201 203 204 212 217 218 221 227 231 234 238 241 242 255 264 271 277
202 216 199 217 232 211 214 220 226 209 221 184 203 222 203 146 160 171 188 192 191 187 190 193 196 198 200 201 203 204 213 220 219 225 230 234 239 244 250 258 254 251 265 276
203 215 195 218 211 236 196 223 244 249 229 259 177 201 229 152 185 189 198 192 191 194 193 196 198 200 201 203 205 207 211 222 218 223 233 239 241 243 240 252 247 262 270 272
195 209 209 198 213 224 232 204 227 245 261 239 180 174 216 184 206 194 189 208 195 195 198 195 200 200 203 205 206 208 212 216 218 217 224 233 239 244 248 253 255 259 266 270
234 210 207 186 204 205 210 226 212 237 237 233 243 187 178 171 188 152 214 202 198 197 201 200 201 203 206 205 205 207 209 213 215 218 219 224 229 239 248 251 262 261 255 261
223 213 225 195 197 222 205 216 203 224 212 257 275 308 171 156 173 194 158 183 191 197 200 200 204 203 204 205 205 205 207 209 212 212 211 215 221 227 237 247 242 250 263 284
204 226 215 192 198 206 219 206 215 220 241 221 243 137 126 138 157 162 168 177 184 191 193 191 196 198 199 200 200 200 200 203 202 201 206 205 208 213 209 222 231 279 303 285
200 216 231 211 206 196 214 209 218 221 220 234 213 249 147 161 194 157 211 176 181 186 182 181 180 182 185 188 188 188 188 190 189 186 185 182 186 191 206 199 167 171 136 101
199 221 219 245 214 205 204 217 222 223 228 226 231 211 236 205 191 208 175 173 181 186 183 178 178 177 176 174 173 172 173 172 170 161 163 173 175 168 150 141 135 114 79 314
201 218 227 227 243 205 210 208 221 227 225 236 245 243 229 198 204 215 155 168 185 191 185 179 178 176 173 168 164 162 161 157 154 160 159 144 141 140 144 135 110 350 340 340
202 213 208 222 225 236 242 221 211 226 225 230 236 237 255 206 204 225 223 193 200 199 190 183 179 174 171 167 161 158 154 150 145 143 140 142 142 142 138 130 344 8 6 16
202 215 200 216 215 229 204 236 214 222 229 228 236 249 250 226 208 229 237 229 214 201 190 183 177 171 167 163 156 155 151 147 147 143 142 141 140 134 109 38 6 24 26 26
206 196 215 210 218 225 220 227 220 233 232 230 233 237 243 230 225 238 253 245 233 198 187 180 175 167 163 160 157 152 151 150 147 146 147 147 147 131 116 7 354 358 35 27
204 208 219 208 224 219 215 212 217 221 229 231 219 232 240 223 230 222 242 223 210 174 175 172 168 163 160 159 157 154 152 152 150 154 149 142 136 154 125 76 4 8 65 336
209 191 213 216 222 239 207 216 192 217 222 210 219 222 231 233 239 238 288 176 173 169 167 166 166 165 164 161 158 153 152 154 157 152 154 164 185 190 38 21 32 53 12 21
202 194 207 215 211 224 230 212 200 204 233 247 216 224 226 233 238 194 172 161 161 163 165 166 164 167 164 163 160 158 159 159 159 153 152 152 117 116 122 103 48 80 75 19
207 209 213 216 221 315 246 242 237 208 214 234 248 240 215 219 229 176 171 165 165 163 164 167 167 165 166 167 168 164 164 162 159 159 151 143 165 168 136 108 101 95 53 63
198 203 225 232 230 236 232 237 236 235 234 236 246 235 215 215 222 174 176 169 165 165 165 167 167 166 165 168 164 167 161 160 158 150 147 146 145 137 115 106 112 101 83 72
178 206 224 230 227 225 227 223 221 214 224 242 261 259 255 212 187 182 179 171 165 164 166 169 168 169 168 164 165 164 162 155 152 143 144 139 139 141 159 158 130 85 67 57
230 213 208 233 216 228 229 224 238 246 250 235 238 243 234 206 182 180 178 172 166 165 167 169 172 168 166 163 163 158 154 152 147 143 139 150 152 147 164 146 117 78 42 34